Weather Roundup
Issued by NWS Chicago, IL

Home | Current Version | Previous Version | Graphics & Text | Print | Product List | Glossary On
Versions: 1 2 3 4 5 6 7 8 9 10 11 12 13 14 15 16 17 18 19 20 21 22 23 24 25 26 27 28 29 30 31 32 33 34 35 36 37 38 39 40 41 42 43 44 45 46 47 48 49 50
351
NZUS59 KLOT 302112
HRRLOT

CHICAGO AREA WEATHER ROUNDUP
NATIONAL WEATHER SERVICE CHICAGO/ROMEOVILLE IL
400 PM CDT FRI SEP 30 2016

NOTE: "FAIR" INDICATES FEW OR NO CLOUDS BELOW 12,000 FEET WITH NO
SIGNIFICANT WEATHER AND/OR OBSTRUCTIONS TO VISIBILITY.

* THESE STATIONS ARE NOT UNDER NWS QUALITY CONTROL. THEY ALSO MAY NOT
  REPORT WEATHER SUCH AS PRECIPITATION OR FOG.

ILZ005-006-012>014-019>023-302200-
NORTHEAST ILLINOIS

CITY           SKY/WX    TMP DP  RH WIND       PRES   REMARKS
OHARE          CLOUDY    64  59  83 NE13      30.08F
MIDWAY         CLOUDY    65  59  81 N15       30.07S
AURORA         CLOUDY    66  59  78 NE13G20   30.08F
LANSING*       CLOUDY    64  62  91 NE3       30.05F
JOLIET*        CLOUDY    66  61  84 NE12      30.07S
WAUKEGAN       CLOUDY    63  59  87 NE12      30.10F
DUPAGE AIRPORT CLOUDY    65  58  78 NE16      30.08F
WHEELING       CLOUDY    64  59  83 NE12      30.10F
KANKAKEE*      LGT RAIN  63  61  93 NE7       30.05R
MORRIS*        CLOUDY    66  59  78 NE5       30.05F
LEWIS AIRPORT* CLOUDY    64  61  92 NE13G22   30.07S
NORTHERLY ISL    N/A     62  58  86 N12         N/A
$$

WIZ051-052-058>065-066-070>072-302200-
SOUTHEAST WISCONSIN

CITY           SKY/WX    TMP DP  RH WIND       PRES   REMARKS
MILWAUKEE      CLOUDY    61  57  87 NE9       30.15R
KENOSHA*       CLOUDY    63  59  87 NE14      30.12F
RACINE*        CLOUDY    63  58  83 NE13      30.14S
BURLINGTON     CLOUDY    60  56  87 NE10      30.13S
WAUKESHA       CLOUDY    57  55  94 MISG      30.16F
WEST BEND      CLOUDY    68  68 100 NE9       30.17S
$$

INZ001>003-010>013-019-020-302200-
NORTHWEST INDIANA

CITY           SKY/WX    TMP DP  RH WIND       PRES   REMARKS
GARY*          CLOUDY    66  63  88 N12G23    30.06F
MICHIGAN CITY* NOT AVBL
RENSSELAER*    NOT AVBL
VALPARAISO     CLOUDY    67  58  72 NE12      30.04S
$$

LMZ740>746-302200-
SOUTHERN LAKE MICHIGAN

STATION/POSITION TIME  SKY/WX   TEMP WIND        PRES    VSBY
                                AIR  DIR/SP/G
                 (UTC)          (F)  (DEG/KT/KT) (MB)    (MI)
HARRISON CRIB    2040            64   40/ 18/ 19   N/A
BURNHAM HARBOR   2100            62   20/ 10/ 13   N/A
CALUMET HARBOR   2048            63   10/ 12/ 16 1017.6F
BURNS HARBOR     2040            64   50/ 13/ 18 1017.6F
MICHIGAN CITY    2040            62   30/ 13/ 15   N/A
$$

ABBREVIATIONS USED IN REMARKS
   TC - TEMPERATURE IN CELSIUS
  WCI - WIND CHILL INDEX
   HX - HEAT INDEX
  VSB - VISIBILITY
$$




USA.gov is the U.S. government's official web portal to all federal, state and local government web resources and services.